Weather History for KINL - January, 2013

Change the Weather History Date:

Wednesday, January 23, 2013

  Actual Average Record
Temperature  
Mean Temperature -16 °F 4 °F  
Max Temperature -5 °F 16 °F 41 °F (1981)
Min Temperature -27 °F -7 °F -43 °F (1907)
Degree Days  
Heating Degree Days 81 61  
Month to date heating degree days 1351 1399  
Since 1 July heating degree days 5482 5574  
Cooling Degree Days 0 0  
Month to date cooling degree days 0 0  
Year to date cooling degree days 0 0  
Moisture  
Dew Point -17 °F    
Average Humidity 70    
Maximum Humidity 83    
Minimum Humidity 57    
Precipitation  
Precipitation 0.01 in 0.01 in 0.46 in (1969)
Month to date precipitation 1.24 0.49  
Year to date precipitation 1.24 0.49  
Snow  
Snow 0.30 in 0.40 in 6.60 in (1982)
Month to date snowfall 11.6 11.7  
Since 1 July snowfall 36.9 42.7  
Snow Depth 13.00 in    
Sea Level Pressure  
Sea Level Pressure 30.33 in    
Wind  
Wind Speed 9 mph (WNW)    
Max Wind Speed 25 mph    
Max Gust Speed 32 mph    
Visibility 8 miles    
Events Snow    
T = Trace of Precipitation, MM = Missing Value Source: NWS Daily Summary

Daily Weather History Graph

Daily Weather History Graph

Search for Another Location

Airport or City:

Trip Planner

Search our weather history database for the weather conditions in past years. The results will help you decide how hot, cold, wet, or windy it might be!

Date:

Astronomy

Jan. 23, 2013 Rise Set
Actual Time 7:53 AM CST 4:58 PM CST
Civil Twilight 7:18 AM CST 5:32 PM CST
Nautical Twilight 6:40 AM CST 6:11 PM CST
Astronomical Twilight 6:03 AM CST 6:48 PM CST
Moon 2:05 PM CST (1/23) 5:09 AM CST (1/23)
Length of Visible Light 10h 14m
Length of Day
9h 05m
Waxing Gibbous, 89% of the Moon is Illuminated
Jan 23
Waxing Gibbous
Jan 26
Full
Feb 3
Last Quarter
Feb 10
New
Feb 17
First Quarter

Hourly Weather History & Observations

Time (CST) Temp. Windchill Dew Point Humidity Pressure Visibility Wind Dir Wind Speed Gust Speed Precip Events Conditions
12:55 AM -18.0 °F -30.9 °F -24.0 °F 74% 30.19 in 10.0 mi SSW 4.6 mph - N/A   Overcast
1:55 AM -13.0 °F -28.6 °F -18.0 °F 78% 30.18 in 10.0 mi SSW 6.9 mph - N/A   Overcast
2:55 AM -9.0 °F -20.4 °F -14.1 °F 79% 30.16 in 10.0 mi SW 4.6 mph - N/A   Overcast
3:55 AM -7.1 °F -15.9 °F -11.0 °F 83% 30.15 in 5.0 mi WSW 3.5 mph - 0.00 in Snow Light Snow
4:12 AM -5.8 °F -18.4 °F -11.2 °F 77% 30.03 in 2.5 mi WSW 5.8 mph - 0.00 in Snow Light Snow
4:22 AM -5.8 °F -16.7 °F -11.2 °F 77% 30.03 in 3.0 mi WSW 4.6 mph - 0.00 in Snow Light Snow
4:29 AM -5.8 °F -16.7 °F -9.4 °F 84% 30.02 in 2.5 mi WSW 4.6 mph - 0.00 in Snow Light Snow
4:55 AM -5.1 °F -13.6 °F -9.0 °F 83% 30.14 in 3.0 mi WSW 3.5 mph - 0.01 in Snow Light Snow
5:20 AM -5.8 °F - -9.4 °F 84% 30.01 in 2.5 mi Calm Calm - 0.00 in Snow Light Snow
5:34 AM -5.8 °F -16.7 °F -9.4 °F 84% 30.01 in 4.0 mi WSW 4.6 mph - 0.00 in Snow Light Snow
5:55 AM -5.1 °F -13.6 °F -9.9 °F 80% 30.14 in 5.0 mi WSW 3.5 mph - 0.00 in Snow Light Snow
6:55 AM -6.0 °F -21.5 °F -11.0 °F 79% 30.14 in 10.0 mi West 8.1 mph - 0.00 in   Scattered Clouds
7:55 AM -7.1 °F -26.8 °F -11.9 °F 79% 30.17 in 10.0 mi NW 12.7 mph - N/A   Scattered Clouds
8:04 AM -7.6 °F -27.5 °F -11.2 °F 84% 30.05 in 10.0 mi WNW 12.7 mph - N/A   Mostly Cloudy
8:13 AM -7.6 °F -27.5 °F -11.2 °F 84% 30.06 in 10.0 mi WNW 12.7 mph - N/A   Overcast
8:55 AM -8.0 °F -28.0 °F -13.0 °F 79% 30.21 in 3.0 mi WNW 12.7 mph 20.7 mph 0.00 in   Overcast
9:55 AM -8.0 °F -31.6 °F -15.0 °F 71% 30.27 in 5.0 mi NNW 18.4 mph 27.6 mph 0.00 in   Haze
10:41 AM -7.6 °F -30.5 °F -16.6 °F 65% 30.18 in 6.0 mi NW 17.3 mph 27.6 mph 0.00 in   Haze
10:52 AM -7.6 °F -32.3 °F -16.6 °F 65% 30.19 in 10.0 mi NNW 20.7 mph 26.5 mph 0.00 in   Scattered Clouds
10:55 AM -8.0 °F -33.3 °F -18.0 °F 61% 30.32 in 10.0 mi NNW 21.9 mph 28.8 mph 0.00 in   Scattered Clouds
11:38 AM -7.6 °F -30.5 °F -18.4 °F 59% 30.21 in 10.0 mi NW 17.3 mph 26.5 mph N/A   Mostly Cloudy
11:55 AM -8.0 °F -32.8 °F -18.0 °F 61% 30.35 in 10.0 mi NW 20.7 mph - N/A   Overcast
12:04 PM -7.6 °F -30.5 °F -18.4 °F 59% 30.22 in 10.0 mi NW 17.3 mph - N/A   Overcast
12:30 PM -7.6 °F -29.8 °F -18.4 °F 59% 30.23 in 10.0 mi NNW 16.1 mph 23.0 mph N/A   Overcast
12:55 PM -8.0 °F -31.0 °F -18.0 °F 61% 30.39 in 10.0 mi NNW 17.3 mph - N/A   Overcast
1:55 PM -8.0 °F -29.6 °F -18.0 °F 61% 30.43 in 10.0 mi NNW 15.0 mph - N/A   Overcast
2:55 PM -8.0 °F -27.1 °F -18.9 °F 59% 30.48 in 8.0 mi NNW 11.5 mph - N/A   Overcast
3:55 PM -9.0 °F -29.3 °F -20.0 °F 59% 30.52 in 10.0 mi NNW 12.7 mph 21.9 mph N/A   Mostly Cloudy
4:38 PM -9.4 °F -30.6 °F -20.2 °F 59% 30.41 in 10.0 mi NNW 13.8 mph - N/A   Scattered Clouds
4:55 PM -9.9 °F -29.6 °F -20.0 °F 61% 30.56 in 10.0 mi NNW 11.5 mph - N/A   Clear
5:55 PM -13.0 °F -28.6 °F -22.0 °F 64% 30.60 in 10.0 mi NW 6.9 mph - N/A   Clear
6:55 PM -16.1 °F -32.3 °F -22.0 °F 74% 30.63 in 10.0 mi NW 6.9 mph - N/A   Clear
7:55 PM -17.0 °F -33.4 °F -23.1 °F 74% 30.66 in 10.0 mi NW 6.9 mph - N/A   Clear
8:55 PM -18.9 °F -34.0 °F -24.0 °F 78% 30.69 in 10.0 mi NNW 5.8 mph - N/A   Clear
9:55 PM -16.1 °F -30.6 °F -22.0 °F 74% 30.69 in 10.0 mi North 5.8 mph - N/A   Clear
10:48 PM -20.2 °F -33.5 °F -25.6 °F 76% 30.57 in 10.0 mi NW 4.6 mph - N/A   Partly Cloudy
10:55 PM -20.0 °F -33.3 °F -25.1 °F 78% 30.72 in 10.0 mi NW 4.6 mph - N/A   Partly Cloudy
11:55 PM -27.0 °F - -31.0 °F 81% 30.75 in 10.0 mi Calm Calm - N/A   Partly Cloudy